Change the Weather History Date:

Monday, January 20, 2014

  Actual Average Record
Temperature  
Mean Temperature 18 °F -  
Max Temperature 39 °F 29 °F 50 °F (1981)
Min Temperature -2 °F 7 °F -29 °F (1970)
Degree Days  
Heating Degree Days 46    
Moisture  
Dew Point 15 °F    
Average Humidity 70    
Maximum Humidity 85    
Minimum Humidity 56    
Precipitation  
Precipitation 0.00 in - - ()
Sea Level Pressure  
Sea Level Pressure 30.13 in    
Wind  
Wind Speed 16 mph (WNW)    
Max Wind Speed 40 mph    
Max Gust Speed 51 mph    
Visibility 10 miles    
Events      
Averages and records for this station are not official NWS values.
T = Trace of Precipitation, MM = Missing Value Source: NWS Daily Summary

Daily Weather History Graph

Daily Weather History Graph

Search for Another Location

Airport or City:

Trip Planner

Search our weather history database for the weather conditions in past years. The results will help you decide how hot, cold, wet, or windy it might be!

Date:

Astronomy

Jan. 20, 2014 Rise Set
Actual Time 7:54 AM CST 5:26 PM CST
Civil Twilight 7:23 AM CST 5:57 PM CST
Nautical Twilight 6:49 AM CST 6:32 PM CST
Astronomical Twilight 6:15 AM CST 7:06 PM CST
Moon 10:10 PM CST (1/20) 9:47 AM CST (1/20)
Length of Visible Light 10h 34m
Length of Day
9h 32m
Waning Gibbous, 82% of the Moon is Illuminated
Jan 20
Waning Gibbous
Jan 23
Last Quarter
Jan 30
New
Feb 6
First Quarter
Feb 14
Full

Hourly Weather History & Observations

Time (CST) Temp. Windchill Dew Point Humidity Pressure Visibility Wind Dir Wind Speed Gust Speed Precip Events Conditions
12:15 AM 37.4 °F 30.8 °F 26.6 °F 65% 29.84 in 10.0 mi West 9.2 mph - N/A   Clear
12:35 AM 35.6 °F 28.6 °F 26.6 °F 70% 29.85 in 10.0 mi West 9.2 mph - N/A   Clear
12:55 AM 35.6 °F 29.2 °F 26.6 °F 70% 29.85 in 10.0 mi West 8.1 mph - N/A   Clear
1:15 AM 37.4 °F 30.8 °F 26.6 °F 65% 29.85 in 10.0 mi WNW 9.2 mph - N/A   Clear
1:35 AM 37.4 °F 30.3 °F 26.6 °F 65% 29.86 in 10.0 mi WNW 10.4 mph - N/A   Clear
1:55 AM 37.4 °F 28.9 °F 26.6 °F 65% 29.87 in 10.0 mi WNW 13.8 mph - N/A   Clear
2:15 AM 37.4 °F 28.9 °F 26.6 °F 65% 29.87 in 10.0 mi NW 13.8 mph - N/A   Scattered Clouds
2:35 AM 37.4 °F 28.5 °F 26.6 °F 65% 29.88 in 10.0 mi NW 15.0 mph - N/A   Overcast
2:55 AM 37.4 °F 30.3 °F 26.6 °F 65% 29.89 in 10.0 mi NW 10.4 mph - N/A   Scattered Clouds
3:15 AM 37.4 °F 30.8 °F 26.6 °F 65% 29.90 in 10.0 mi WNW 9.2 mph - N/A   Partly Cloudy
3:35 AM 35.6 °F 30.7 °F 26.6 °F 70% 29.91 in 10.0 mi West 5.8 mph - N/A   Scattered Clouds
3:55 AM 35.6 °F 29.9 °F 26.6 °F 70% 29.91 in 10.0 mi West 6.9 mph - N/A   Clear
4:15 AM 33.8 °F 26.4 °F 26.6 °F 75% 29.92 in 10.0 mi NW 9.2 mph - N/A   Clear
4:35 AM 33.8 °F 25.8 °F 26.6 °F 75% 29.92 in 10.0 mi WNW 10.4 mph - N/A   Clear
4:55 AM 32.0 °F 24.8 °F 26.6 °F 80% 29.91 in 10.0 mi NW 8.1 mph - N/A   Clear
5:15 AM 32.0 °F 25.6 °F 26.6 °F 80% 29.91 in 10.0 mi West 6.9 mph - N/A   Clear
5:35 AM 33.8 °F 27.0 °F 26.6 °F 75% 29.92 in 10.0 mi West 8.1 mph - N/A   Clear
5:55 AM 33.8 °F 26.4 °F 26.6 °F 75% 29.92 in 10.0 mi West 9.2 mph - N/A   Clear
6:15 AM 32.0 °F 24.2 °F 26.6 °F 80% 29.93 in 10.0 mi West 9.2 mph - N/A   Clear
6:35 AM 32.0 °F 27.5 °F 26.6 °F 80% 29.93 in 10.0 mi WSW 4.6 mph - N/A   Clear
6:55 AM 32.0 °F 26.4 °F 26.6 °F 80% 29.94 in 10.0 mi SW 5.8 mph - N/A   Clear
7:15 AM 30.2 °F 25.4 °F 24.8 °F 80% 29.94 in 10.0 mi SW 4.6 mph - N/A   Clear
7:35 AM 30.2 °F 21.3 °F 24.8 °F 80% 29.94 in 10.0 mi SW 10.4 mph - N/A   Clear
7:55 AM 32.0 °F 25.6 °F 24.8 °F 75% 29.95 in 10.0 mi SW 6.9 mph - N/A   Clear
8:15 AM 33.8 °F 23.5 °F 26.6 °F 75% 29.95 in 10.0 mi West 16.1 mph - N/A   Clear
8:35 AM 35.6 °F 24.5 °F 26.6 °F 70% 29.95 in 10.0 mi West 20.7 mph 26.5 mph N/A   Clear
8:55 AM 35.6 °F 24.2 °F 26.6 °F 70% 29.96 in 10.0 mi West 21.9 mph 27.6 mph N/A   Clear
9:15 AM 37.4 °F 26.1 °F 26.6 °F 65% 29.97 in 10.0 mi West 24.2 mph 31.1 mph N/A   Clear
9:35 AM 37.4 °F 26.6 °F 26.6 °F 65% 29.98 in 10.0 mi West 21.9 mph 31.1 mph N/A   Clear
9:55 AM 39.2 °F 27.6 °F 24.8 °F 56% 29.99 in 10.0 mi WNW 28.8 mph 35.7 mph N/A   Clear
10:15 AM - - - N/A% 29.99 in 10.0 mi WNW 27.6 mph 36.8 mph N/A   Mostly Cloudy
10:35 AM 39.2 °F 27.8 °F 24.8 °F 56% 30.00 in 10.0 mi WNW 27.6 mph 39.1 mph N/A   Mostly Cloudy
10:55 AM 39.2 °F 27.8 °F 26.6 °F 61% 30.01 in 10.0 mi WNW 27.6 mph 38.0 mph N/A   Mostly Cloudy
11:15 AM 39.2 °F 28.5 °F 24.8 °F 56% 30.02 in 10.0 mi WNW 24.2 mph 33.4 mph N/A   Overcast
11:35 AM 39.2 °F 27.4 °F 24.8 °F 56% 30.02 in 10.0 mi WNW 29.9 mph 35.7 mph N/A   Overcast
11:55 AM 39.2 °F 27.4 °F 24.8 °F 56% 30.02 in 10.0 mi WNW 29.9 mph 36.8 mph N/A   Overcast
12:15 PM 39.2 °F 27.8 °F 26.6 °F 61% 30.01 in 10.0 mi WNW 27.6 mph 34.5 mph N/A   Mostly Cloudy
12:35 PM 37.4 °F 25.6 °F 26.6 °F 65% 30.01 in 10.0 mi WNW 26.5 mph 39.1 mph N/A   Mostly Cloudy
12:55 PM 39.2 °F 28.5 °F 26.6 °F 61% 30.00 in 10.0 mi WNW 24.2 mph 27.6 mph N/A   Mostly Cloudy
1:15 PM - - - N/A% 30.00 in 10.0 mi WNW 34.5 mph 43.7 mph N/A   Mostly Cloudy
1:35 PM - - - N/A% 30.02 in 10.0 mi NW 33.4 mph 41.4 mph N/A   Mostly Cloudy
1:55 PM - - - N/A% 30.04 in 10.0 mi NW 40.3 mph 50.6 mph N/A   Mostly Cloudy
2:15 PM - - - N/A% 30.07 in 10.0 mi NW 31.1 mph 48.3 mph N/A   Overcast
2:35 PM - - - N/A% 30.09 in 10.0 mi NW 33.4 mph 43.7 mph N/A   Overcast
2:55 PM - - - N/A% 30.11 in 5.0 mi NW 33.4 mph 43.7 mph N/A   Overcast
3:15 PM - - - N/A% 30.16 in 10.0 mi NW 38.0 mph 43.7 mph N/A   Mostly Cloudy
3:35 PM 21.2 °F 2.2 °F 12.2 °F 68% 30.21 in 4.0 mi NW 33.4 mph 43.7 mph N/A   Mostly Cloudy
3:55 PM - - - N/A% 30.24 in 6.0 mi NW 33.4 mph 44.9 mph N/A   Scattered Clouds
4:15 PM 14.0 °F -6.5 °F 6.8 °F 73% 30.28 in 10.0 mi NW 28.8 mph 40.3 mph N/A   Scattered Clouds
4:35 PM 12.2 °F -9.3 °F 3.2 °F 67% 30.31 in 10.0 mi NW 29.9 mph 35.7 mph N/A   Partly Cloudy
4:55 PM 10.4 °F -12.0 °F 1.4 °F 67% 30.32 in 10.0 mi NNW 31.1 mph 40.3 mph N/A   Partly Cloudy
5:15 PM 8.6 °F -14.1 °F 1.4 °F 73% 30.34 in 9.0 mi NW 29.9 mph 36.8 mph N/A   Partly Cloudy
5:35 PM 8.6 °F -13.4 °F 1.4 °F 73% 30.37 in 5.0 mi NNW 27.6 mph 34.5 mph N/A   Clear
5:55 PM 6.8 °F -13.8 °F -0.4 °F 72% 30.38 in 10.0 mi NNW 21.9 mph 34.5 mph N/A   Clear
6:15 PM 6.8 °F -14.7 °F -2.2 °F 67% 30.39 in 10.0 mi NNW 24.2 mph 31.1 mph N/A   Clear
6:35 PM 6.8 °F -16.9 °F -0.4 °F 72% 30.41 in 5.0 mi NNW 31.1 mph 38.0 mph N/A   Clear
6:55 PM 5.0 °F -16.7 °F -2.2 °F 72% 30.43 in 10.0 mi NW 23.0 mph 31.1 mph N/A   Clear
7:15 PM 5.0 °F -18.3 °F -2.2 °F 72% 30.44 in 10.0 mi NNW 27.6 mph 35.7 mph N/A   Clear
7:35 PM 3.2 °F -21.5 °F -0.4 °F 85% 30.45 in 10.0 mi NNW 29.9 mph 38.0 mph N/A   Clear
7:55 PM 3.2 °F -20.3 °F -5.8 °F 66% 30.47 in 10.0 mi NNW 26.5 mph 34.5 mph N/A   Clear
8:15 PM 3.2 °F -19.0 °F -2.2 °F 78% 30.49 in 10.0 mi NNW 23.0 mph 32.2 mph N/A   Clear
8:35 PM 1.4 °F -18.8 °F -7.6 °F 66% 30.50 in 10.0 mi NNW 17.3 mph 28.8 mph N/A   Clear
8:55 PM 1.4 °F -19.4 °F -2.2 °F 85% 30.50 in 10.0 mi NW 18.4 mph 24.2 mph N/A   Clear
9:15 PM 1.4 °F -18.2 °F -7.6 °F 66% 30.51 in 10.0 mi NNW 16.1 mph 21.9 mph N/A   Clear
9:35 PM 1.4 °F -18.2 °F -7.6 °F 66% 30.52 in 10.0 mi NNW 16.1 mph 24.2 mph N/A   Clear
9:55 PM -0.4 °F -21.7 °F -7.6 °F 72% 30.52 in 10.0 mi NNW 18.4 mph - N/A   Clear
10:15 PM -0.4 °F -22.3 °F -9.4 °F 66% 30.53 in 10.0 mi NNW 19.6 mph 28.8 mph N/A   Clear
10:35 PM -0.4 °F -19.2 °F -7.6 °F 72% 30.53 in 10.0 mi NNW 13.8 mph 20.7 mph N/A   Clear
10:55 PM -0.4 °F -20.5 °F -7.6 °F 72% 30.53 in 10.0 mi NW 16.1 mph 19.6 mph N/A   Clear
11:15 PM -0.4 °F -21.7 °F -11.2 °F 60% 30.53 in 10.0 mi NW 18.4 mph - N/A   Clear
11:35 PM -2.2 °F -23.5 °F -7.6 °F 78% 30.53 in 10.0 mi NW 17.3 mph 20.7 mph N/A   Clear
11:55 PM -2.2 °F -22.9 °F -11.2 °F 66% 30.53 in 10.0 mi NNW 16.1 mph - N/A   Clear